TimeMST,TemperatureF,Dew PointF,Humidity,Sea Level PressureIn,VisibilityMPH,Wind Direction,Wind SpeedMPH,Gust SpeedMPH,PrecipitationIn,Events,Conditions,WindDirDegrees,DateUTC
12:07 AM,15.8,14.0,93,29.58,1.5,NNW,10.4,-,N/A,Snow,Light Snow,340,2013-02-21 07:07:00
12:30 AM,15.8,14.0,93,29.58,2.5,NNW,8.1,-,N/A,Snow,Light Snow,330,2013-02-21 07:30:00
12:47 AM,14.0,14.0,100,29.58,4.0,NNW,9.2,-,0.01,Snow,Light Snow,340,2013-02-21 07:47:00
1:07 AM,14.0,14.0,100,29.58,1.8,NNW,11.5,-,N/A,Snow,Light Snow,330,2013-02-21 08:07:00
1:27 AM,14.0,12.2,93,29.57,3.0,NW,11.5,-,N/A,Snow,Light Snow,320,2013-02-21 08:27:00
1:50 AM,14.0,12.2,93,29.58,2.0,NNW,9.2,-,N/A,Snow,Light Snow,330,2013-02-21 08:50:00
2:10 AM,14.0,12.2,93,29.57,1.5,NNW,10.4,-,N/A,Snow,Light Snow,330,2013-02-21 09:10:00
2:20 AM,14.0,12.2,93,29.57,1.2,NNW,12.7,-,N/A,Snow,Light Snow,330,2013-02-21 09:20:00
2:50 AM,12.2,10.4,92,29.57,2.5,NW,11.5,-,N/A,Snow,Light Snow,320,2013-02-21 09:50:00
3:00 AM,12.2,10.4,92,29.56,2.0,NW,11.5,-,N/A,Snow,Light Snow,320,2013-02-21 10:00:00
3:29 AM,12.2,10.4,92,29.58,1.8,NNW,9.2,-,N/A,Snow,Light Snow,330,2013-02-21 10:29:00
3:49 AM,12.2,10.4,92,29.58,2.5,NNW,9.2,-,N/A,Snow,Light Snow,330,2013-02-21 10:49:00
4:09 AM,12.2,10.4,92,29.58,2.5,NNW,9.2,-,N/A,Snow,Light Snow,330,2013-02-21 11:09:00
5:09 AM,12.2,10.4,92,29.60,4.0,NW,11.5,-,N/A,Snow,Light Snow,310,2013-02-21 12:09:00
5:30 AM,12.2,10.4,92,29.61,5.0,NW,6.9,-,N/A,Snow,Light Snow,310,2013-02-21 12:30:00
5:50 AM,10.4,8.6,92,29.62,4.0,NW,8.1,-,N/A,Snow,Light Snow,310,2013-02-21 12:50:00
6:09 AM,10.4,8.6,92,29.62,7.0,NW,8.1,-,N/A,Snow,Light Snow,310,2013-02-21 13:09:00
6:27 AM,10.4,8.6,92,29.62,7.0,NW,6.9,-,N/A,Snow,Light Snow,310,2013-02-21 13:27:00
6:47 AM,10.4,8.6,92,29.63,1.5,NW,11.5,-,N/A,Snow,Light Snow,310,2013-02-21 13:47:00
7:09 AM,10.4,8.6,92,29.63,1.0,NW,9.2,-,N/A,Snow,Light Snow,320,2013-02-21 14:09:00
7:31 AM,12.2,10.4,92,29.64,1.0,NW,11.5,-,N/A,Snow,Light Snow,310,2013-02-21 14:31:00
7:49 AM,12.2,10.4,92,29.65,1.0,NW,10.4,-,N/A,Snow,Light Snow,310,2013-02-21 14:49:00
8:05 AM,12.2,10.4,92,29.66,1.0,NW,10.4,-,N/A,Snow,Light Snow,310,2013-02-21 15:05:00
8:28 AM,12.2,10.4,92,29.66,1.2,NW,15.0,-,N/A,Snow,Light Snow,310,2013-02-21 15:28:00
8:49 AM,12.2,10.4,92,29.67,1.2,NW,12.7,-,N/A,Snow,Light Snow,310,2013-02-21 15:49:00
9:10 AM,14.0,10.4,86,29.67,1.0,NW,13.8,-,N/A,Snow,Light Snow,320,2013-02-21 16:10:00
9:21 AM,14.0,10.4,86,29.67,0.8,NW,13.8,-,N/A,Snow,Light Snow,320,2013-02-21 16:21:00
9:44 AM,14.0,10.4,86,29.68,0.8,NW,13.8,-,N/A,Snow,Light Snow,320,2013-02-21 16:44:00
10:11 AM,15.8,10.4,79,29.68,2.5,NW,11.5,-,N/A,Snow,Light Snow,310,2013-02-21 17:11:00
10:29 AM,17.6,12.2,79,29.68,2.0,NW,12.7,-,N/A,Snow,Light Snow,320,2013-02-21 17:29:00
11:06 AM,17.6,12.2,79,-9999,5.0,NNW,18.4,-,N/A,Snow,Light Snow,330,2013-02-21 18:06:00
11:29 AM,17.6,12.2,79,29.68,3.0,NW,18.4,-,N/A,Snow,Light Snow,320,2013-02-21 18:29:00
11:51 AM,17.6,12.2,79,29.68,3.0,NW,19.6,-,N/A,,Haze,320,2013-02-21 18:51:00
12:03 PM,19.4,12.2,74,29.68,5.0,NNW,16.1,-,N/A,,Haze,330,2013-02-21 19:03:00
12:31 PM,19.4,14.0,80,29.67,7.0,NW,16.1,-,N/A,,Mostly Cloudy,320,2013-02-21 19:31:00
12:45 PM,19.4,14.0,80,29.66,10.0,NNW,15.0,-,N/A,,Mostly Cloudy,330,2013-02-21 19:45:00
12:56 PM,19.4,14.0,80,29.66,10.0,NNW,15.0,-,N/A,,Mostly Cloudy,330,2013-02-21 19:56:00
1:28 PM,17.6,12.2,79,29.65,7.0,NNW,18.4,24.2,N/A,,Overcast,330,2013-02-21 20:28:00
1:51 PM,17.6,12.2,79,29.65,10.0,NNW,20.7,25.3,N/A,,Overcast,330,2013-02-21 20:51:00
2:10 PM,19.4,14.0,80,29.66,10.0,NW,18.4,24.2,N/A,,Overcast,310,2013-02-21 21:10:00
2:30 PM,19.4,12.2,74,29.66,10.0,NNW,20.7,-,N/A,,Mostly Cloudy,330,2013-02-21 21:30:00
2:48 PM,19.4,14.0,80,29.66,10.0,NW,20.7,25.3,N/A,,Mostly Cloudy,320,2013-02-21 21:48:00
3:08 PM,19.4,14.0,80,29.67,10.0,NNW,19.6,-,N/A,,Overcast,330,2013-02-21 22:08:00
3:28 PM,17.6,14.0,86,29.67,10.0,NNW,17.3,-,N/A,,Overcast,330,2013-02-21 22:28:00
3:51 PM,17.6,14.0,86,29.69,7.0,NNW,15.0,-,N/A,Snow,Light Snow,340,2013-02-21 22:51:00
4:06 PM,17.6,14.0,86,29.69,7.0,North,13.8,-,N/A,Snow,Light Snow,350,2013-02-21 23:06:00
4:31 PM,17.6,14.0,86,29.70,5.0,NNW,13.8,-,N/A,Snow,Light Snow,340,2013-02-21 23:31:00
4:51 PM,17.6,14.0,86,29.70,10.0,NNW,11.5,-,N/A,Snow,Light Snow,330,2013-02-21 23:51:00
5:14 PM,15.8,12.2,86,29.71,10.0,NNW,13.8,-,N/A,Snow,Light Snow,340,2013-02-22 00:14:00
5:34 PM,15.8,12.2,86,29.71,10.0,NNW,11.5,18.4,N/A,Snow,Light Snow,340,2013-02-22 00:34:00
5:51 PM,15.8,12.2,86,29.73,5.0,NNW,9.2,-,N/A,Snow,Light Snow,330,2013-02-22 00:51:00
6:14 PM,15.8,12.2,86,29.74,5.0,NNW,10.4,-,N/A,Snow,Light Snow,330,2013-02-22 01:14:00
6:32 PM,15.8,12.2,86,29.75,5.0,NNW,9.2,-,N/A,Snow,Light Snow,330,2013-02-22 01:32:00
6:54 PM,14.0,12.2,93,29.75,5.0,NNW,8.1,-,N/A,Snow,Light Snow,340,2013-02-22 01:54:00
7:13 PM,14.0,12.2,93,29.76,5.0,NNW,6.9,-,N/A,Snow,Light Snow,340,2013-02-22 02:13:00
7:32 PM,14.0,12.2,93,29.77,7.0,NW,6.9,-,N/A,Snow,Light Snow,320,2013-02-22 02:32:00
7:54 PM,14.0,12.2,93,29.78,10.0,WNW,6.9,-,N/A,Snow,Light Snow,300,2013-02-22 02:54:00
8:14 PM,14.0,12.2,93,29.78,10.0,NW,6.9,-,N/A,,Overcast,320,2013-02-22 03:14:00
8:34 PM,12.2,10.4,92,29.78,10.0,NW,5.8,-,N/A,,Overcast,310,2013-02-22 03:34:00
8:52 PM,8.6,6.8,92,29.78,10.0,WNW,8.1,-,N/A,Snow,Light Snow,300,2013-02-22 03:52:00
9:14 PM,6.8,5.0,92,29.79,7.0,West,5.8,-,N/A,,Clear,280,2013-02-22 04:14:00
9:34 PM,8.6,6.8,92,29.78,5.0,WNW,5.8,-,N/A,,Clear,290,2013-02-22 04:34:00
9:54 PM,5.0,3.2,92,29.78,0.8,West,5.8,-,N/A,,Mist,270,2013-02-22 04:54:00
10:14 PM,5.0,3.2,92,29.78,1.0,West,6.9,-,N/A,,Mist,270,2013-02-22 05:14:00
10:34 PM,10.4,10.4,100,29.78,3.0,SW,4.6,-,N/A,,Mostly Cloudy,230,2013-02-22 05:34:00
10:54 PM,8.6,6.8,92,29.78,2.0,SW,3.5,-,N/A,,Overcast,220,2013-02-22 05:54:00
11:14 PM,10.4,8.6,92,29.78,0.2,South,4.6,-,N/A,Fog,Light Freezing Fog,190,2013-02-22 06:14:00
11:33 PM,8.6,5.0,85,29.77,0.2,SSW,3.5,-,N/A,Fog,Light Freezing Fog,200,2013-02-22 06:33:00
11:52 PM,5.0,3.2,92,29.78,1.0,South,3.5,-,N/A,,Mostly Cloudy,190,2013-02-22 06:52:00